星链-5026 (STARLINK-5026 )

导读

STARLINK-5026是美国SpaceX公司星链星座的卫星,于2023年7月7日发射升空,属于星链第二代组网卫星。它运行于近地轨道,配备相控阵天线与氪离子推进系统,可实现主动轨道调整和避碰机动。作为全球卫星互联网星座的组成部分,它为偏远地区、移动场景提供低延迟高速宽带接入,助力星链完成全球覆盖,同时兼顾民用通信与潜在军事应用,是低轨巨型星座建设的重要节点。

基本信息
目录编号:
57260
目录名称:
STARLINK-5026
国际标识:
2023-094AU
轨道中心:
EARTH
卫星名称:
星链-5026
卫星全名:
星链-5026 (STARLINK-5026 )
卫星状态:
在轨 (已飞行1074 天)
发射日期:
2023-07-07 UTC
国别 :
美国 (US)
星等 :
--
轨道信息
数据来源 国际轨道数据 AOE轨道数据
星历时间 2026-06-14T16:15:59+0800
23小时前
查看轨道信息
2026-06-11T10:00:00+0800
4天前
查看轨道信息
半长轴 6861.23km 6861.19km
偏心率 0.0001759 0.0001831
轨道倾角 43.002° 43.004°
近地点辐角 278.910° 259.290°
升交点赤经 193.892° 212.309°
平近点角 81.155° 146.080°
近地点 481.886km 481.796km
远地点 484.3km 484.31km
周期 94.268分钟 94.267分钟
每日圈数 15.275655 15.275789
详细信息
固有亮度:
5
最大亮度:
2.4
卫星平台:
Starlink v1.5
覆盖范围:
全球
运营商:
太空探索技术公司
运营商所在国:
美国
制造商(研发单位):
太空探索技术公司
制造商所在国:
美国
使用方式:
暂无
卫星简介
星链(Starlink)计划是由太空探索技术公司(SpaceX)提出的一个巨型低轨卫星互联网星座项目,计划在2019年至2024年间在太空搭建由约1.2万颗卫星组成的“星链”网络,其中1584颗将部署在地球上空550千米处的近地轨道,并从2020年开始工作。该卫星仍在工作。
2D轨道图
3D轨道图
轨道高度分析图
轨道倾角分析图
轨道综合分析图
查看轨道综合分析图